SCP
0 0 0 -0 -0 -0 0 0 0 0 0 0 0 0 0 0 0 0 0 0 0 0 0 0 0 1 0 0 0 0 0 0 0 0 0 0 0 0 0 0 0 0 0 0 0 0 0 0 0
0 0 0 -0 -0 -0 0 0 0 0 0 0 0 0 0 0 0 0 0 0 0 0 0 0 0 1 1 1 1 0 0 0 0 0 0 0 0 0 0 0 0 0 0 0 0 0 0 0 0
0 0 0 -0 -0 -0 0 0 0 0 0 0 0 0 0 0 0 0 0 0 0 0 0 0 0 0 1 1 1 1 1 1 1 0 0 0 0 0 0 0 0 0 0 0 0 0 0 0 0
0 0 0 0 0 0 0 0 0 0 0 0 0 0 0 0 0 0 0 0 0 0 0 0 0 0 0 0 1 1 1 1 1 1 1 1 0 0 0 0 0 0 0 0 1 1 0 0 0
0 0 0 0 0 0 0 0 0 0 0 0 0 0 0 0 0 0 0 0 0 0 0 0 0 0 0 0 0 0 0 0 1 1 1 1 1 1 1 1 1 1 1 1 1 1 1 1 0
0 0 0 0 0 0 0 0 0 0 0 0 0 0 0 0 0 0 0 0 0 0 0 0 0 0 0 0 0 0 0 0 0 0 0 1 1 1 1 1 1 1 1 1 1 1 1 1 1
0 0 0 0 0 0 0 0 0 0 0 0 0 0 0 0 0 0 0 0 0 0 0 0 0 0 0 0 0 0 0 0 0 0 0 0 1 1 1 1 1 1 1 1 1 1 1 1 1
0 0 0 0 0 0 0 0 0 0 0 0 0 0 0 0 0 0 0 0 0 0 0 0 0 0 0 0 0 0 0 0 0 0 0 0 0 0 1 1 1 1 1 1 1 1 1 1 1
0 0 0 0 0 0 0 0 0 0 0 0 0 0 0 0 0 0 0 0 0 0 0 0 0 0 0 0 0 0 0 0 0 0 0 0 0 0 0 0 0 1 1 1 1 1 1 1 1
0 0 0 0 0 0 0 0 0 0 0 0 0 0 0 0 0 0 0 0 0 0 0 0 0 0 0 0 0 0 0 0 0 0 0 0 0 0 0 0 0 0 1 1 1 1 1 1 1
0 0 0 0 0 0 0 0 0 0 0 0 0 0 0 0 0 0 0 0 0 0 0 0 0 0 0 0 0 0 0 0 0 0 0 0 0 0 0 0 0 0 0 0 1 1 1 1 1
0 0 0 0 0 0 0 0 0 0 0 0 0 0 0 0 0 0 0 0 0 0 0 0 0 0 0 0 0 0 0 0 0 0 0 0 0 0 0 0 0 0 0 0 0 1 1 1 1
0 0 0 0 0 0 0 0 0 0 0 0 0 0 0 0 0 0 0 0 0 0 0 0 0 0 0 0 0 0 0 0 0 0 0 0 0 0 0 0 0 0 0 0 0 0 0 0 1
0 0 0 0 0 0 0 0 0 0 0 0 0 0 0 0 0 0 0 0 0 0 0 0 0 0 0 0 0 0 0 0 0 0 0 0 0 0 0 0 0 0 0 0 0 0 0 0 0
0 0 0 0 0 0 0 0 0 0 0 0 0 0 0 0 0 0 0 0 0 0 0 0 0 0 0 0 0 0 0 0 0 0 0 0 0 0 0 0 0 0 0 0 0 0 0 0 0
0 0 0 0 0 0 0 0 0 0 0 0 0 0 0 0 0 0 0 0 0 0 0 0 0 0 0 0 0 0 0 0 0 0 0 0 0 0 0 0 0 0 0 0 -0 0 0 0 0
0 0 0 0 0 0 0 0 0 0 0 0 0 0 0 0 0 0 0 0 0 0 0 0 0 0 0 0 0 0 0 0 0 0 0 0 0 0 0 0 0 0 0 0 0 0 0 0 0
0 0 0 0 0 0 0 0 0 0 0 0 0 0 0 0 0 0 0 0 0 0 0 0 0 0 0 0 0 0 0 0 0 0 0 0 0 0 0 0 0 0 0 0 0 0 0 0 0
0 0 0 0 0 0 0 0 0 0 0 0 0 0 0 0 0 0 0 0 0 0 0 0 0 0 0 0 0 0 0 0 0 0 0 0 0 0 0 0 0 0 0 0 0 0 0 0 0
0 0 0 0 0 0 0 0 0 0 0 0 0 0 0 0 0 0 0 0 0 0 0 0 0 0 0 0 0 0 0 0 0 0 0 0 0 0 0 0 0 0 0 0 0 0 0 0 0
0 0 0 0 0 0 0 0 0 0 0 0 0 0 0 0 0 0 0 0 0 0 0 0 0 0 0 0 0 0 0 0 0 0 0 0 0 0 0 0 0 0 0 0 0 0 0 0 0
0 0 0 0 0 0 0 0 0 0 0 0 0 0 0 0 0 0 0 0 0 0 0 0 0 0 0 0 0 0 0 0 0 0 0 0 0 0 0 0 0 0 0 0 0 0 0 0 0
0 0 0 0 0 0 0 0 0 0 0 0 0 0 0 0 0 0 0 0 0 0 0 0 0 0 0 0 0 0 0 0 0 0 0 0 0 0 0 0 0 0 0 0 0 0 0 0 0
0 0 0 0 0 0 0 0 0 0 0 0 0 0 0 0 0 0 0 0 0 0 0 0 0 0 0 0 0 0 0 0 0 0 0 0 0 0 0 0 0 0 0 0 0 0 0 0 0
0 0 0 0 0 0 0 0 0 0 0 0 0 0 0 0 0 0 0 0 0 0 0 0 0 0 0 0 0 0 0 0 0 0 0 0 0 0 0 0 0 0 0 0 0 0 0 0 0
0 0 0 0 0 0 0 0 0 0 0 0 0 0 0 0 0 0 0 0 0 0 0 0 0 0 0 0 0 0 0 0 0 0 0 0 0 0 0 0 0 0 0 0 0 0 0 0 0
0 0 0 0 0 0 0 0 0 0 0 0 0 0 0 0 0 0 0 0 0 0 0 0 0 0 0 0 0 0 0 0 0 0 0 0 0 0 0 0 0 0 0 0 0 0 0 0 0
0 0 0 0 0 0 0 0 0 0 0 0 0 0 0 0 0 0 0 0 0 0 0 0 0 0 0 0 0 0 0 0 0 0 0 0 0 0 0 0 0 0 0 0 0 0 0 0 0
0 0 0 0 0 0 0 0 0 0 0 0 0 0 0 0 0 0 0 0 0 0 0 0 0 0 0 0 0 0 0 0 0 0 0 0 0 0 0 0 0 0 0 0 0 0 0 0 0
0 0 0 0 0 0 0 0 0 0 0 0 0 0 0 0 0 0 0 0 0 0 0 0 0 0 0 0 0 0 0 0 0 0 0 0 0 0 0 0 0 0 0 0 0 0 0 0 0
Wind_Speed
7 4 3 3 4 10 13 10 10 13 13 15 16 16 18 17 12 10 14 24 23 18 17 19 20 16 13 12 11 11 11 11 11 10 10 10 10 10 10 10 10 9 9 10 9 9 8 7 6
6 3 2 1 9 14 12 10 13 13 10 6 14 16 16 16 14 10 16 23 20 18 19 22 26 23 19 16 14 13 12 12 12 12 11 11 11 11 11 11 11 11 11 11 11 11 10 9 8
2 3 1 5 12 12 10 10 8 11 18 12 11 14 13 12 12 13 18 19 17 18 19 23 29 29 28 25 21 18 16 15 14 13 13 13 13 13 12 12 12 12 11 11 11 11 11 10 9
3 1 4 13 21 14 12 13 8 6 14 18 12 14 12 11 11 13 16 17 18 20 20 24 30 30 30 30 29 27 24 21 19 17 16 16 15 15 14 13 13 12 12 11 10 10 10 10 10
1 4 12 16 17 14 16 17 18 14 10 15 15 14 11 12 13 13 15 18 20 21 21 23 29 29 29 30 29 29 28 27 25 23 21 19 17 17 16 15 13 13 12 11 10 9 8 8 9
2 4 11 15 15 11 14 18 13 21 15 12 10 11 12 14 14 14 16 18 20 21 21 22 27 28 28 29 29 28 27 27 26 26 25 23 20 18 16 16 14 13 13 12 11 9 8 7 7
5 7 12 13 11 10 10 12 21 15 18 15 9 8 8 18 14 13 15 17 20 22 21 21 22 22 24 25 27 26 26 26 25 26 26 24 21 20 18 16 15 14 13 12 11 11 10 8 7
3 6 9 8 9 8 8 10 13 19 17 14 13 10 9 15 13 12 14 18 21 22 22 22 22 21 20 19 22 23 23 25 24 24 25 23 20 20 19 17 18 17 15 13 12 12 11 10 9
2 7 8 6 8 9 8 10 12 15 18 21 20 17 12 12 12 14 17 21 22 22 21 21 21 21 20 18 18 19 19 21 21 20 23 19 14 15 15 18 20 19 17 15 13 13 12 10 10
6 7 10 10 10 15 16 15 11 12 18 18 18 16 14 13 16 20 22 22 22 22 21 19 20 20 19 15 14 12 12 14 15 15 17 14 13 12 14 16 18 19 18 15 13 12 12 11 9
10 10 12 15 18 18 16 16 12 10 15 15 14 14 14 17 19 20 20 20 19 19 20 19 19 19 18 13 12 10 9 10 12 16 17 14 12 11 11 9 10 12 14 11 11 10 8 9 8
13 13 11 12 12 13 14 13 16 17 13 12 13 13 15 18 19 19 19 18 18 19 20 20 19 18 17 15 12 11 10 9 10 13 16 13 10 11 11 9 11 10 8 10 10 8 10 10 11
14 15 22 24 25 23 23 20 18 16 13 12 12 14 16 17 17 16 16 17 18 19 20 20 20 19 17 14 12 11 11 11 12 11 12 15 11 12 12 10 10 11 10 10 10 10 11 11 11
17 21 18 17 18 15 19 14 10 11 10 11 13 14 15 16 16 17 18 19 19 19 20 19 20 19 18 15 14 12 12 12 11 11 14 15 12 12 12 12 11 11 11 12 11 13 11 9 9
22 20 15 11 11 11 12 14 11 8 8 11 12 13 14 14 15 16 17 17 18 18 18 19 18 19 19 17 16 12 12 13 12 12 13 15 15 14 13 11 11 11 12 14 12 13 11 9 9
9 9 8 6 4 4 3 9 8 5 8 11 11 11 12 13 15 14 16 16 17 17 18 18 16 18 19 17 16 12 12 13 11 11 12 15 16 16 14 12 11 12 12 11 11 11 10 10 10
6 4 7 7 5 2 4 10 8 5 7 10 10 11 11 12 14 15 16 17 17 17 18 18 18 19 18 17 15 14 13 13 12 11 11 14 15 16 14 11 11 13 11 10 10 10 11 11 11
3 4 5 5 5 5 8 13 10 6 6 8 9 10 11 13 14 14 16 17 18 18 18 18 18 19 18 14 13 12 13 11 11 11 12 15 13 16 14 11 13 13 11 10 11 13 12 11 11
3 5 7 5 4 5 11 13 9 6 5 7 9 11 12 13 13 13 15 17 17 18 19 19 19 19 16 13 14 13 13 12 11 11 15 15 15 16 14 12 13 13 12 13 14 13 14 11 11
6 7 6 6 5 5 10 9 7 5 4 6 8 10 12 14 14 14 15 16 16 17 17 18 18 18 17 14 13 12 13 12 11 12 14 15 16 16 13 14 13 13 13 14 14 14 11 11 10
3 0 4 7 6 5 8 10 11 7 3 3 6 9 12 13 14 14 14 15 16 17 17 16 18 17 17 17 12 12 11 11 11 13 12 15 17 16 15 15 14 14 13 12 14 14 14 12 11
2 2 3 10 9 6 10 6 12 11 5 1 7 10 13 14 13 13 14 16 16 16 15 16 17 17 16 16 14 17 13 13 15 13 13 17 16 16 16 15 15 15 13 14 14 13 12 13 11
3 1 4 9 7 3 8 8 6 10 7 1 7 11 13 13 13 13 13 14 15 15 14 15 16 16 16 16 16 15 14 13 13 14 16 16 15 15 16 16 15 15 13 15 16 15 14 11 11
1 3 4 5 6 7 4 7 2 7 3 2 7 11 13 13 13 12 12 13 14 14 14 14 16 16 16 17 16 16 17 18 18 18 17 15 13 13 16 17 16 16 15 15 16 15 16 13 13
2 4 4 4 5 2 4 6 2 8 4 4 8 12 13 13 12 12 13 14 15 15 15 15 16 16 17 17 17 17 17 18 17 17 16 16 14 13 17 17 16 15 16 17 16 16 15 15 15
5 6 6 8 8 5 3 5 5 7 3 4 7 11 12 12 11 12 13 13 15 15 15 15 16 16 17 17 17 17 17 13 13 16 16 15 14 15 18 19 18 18 18 17 16 14 15 13 13
2 2 4 6 6 8 5 3 5 5 1 5 9 12 13 12 11 12 12 13 14 15 15 16 16 17 17 17 18 17 17 16 16 17 16 14 15 16 19 19 18 18 18 17 17 13 15 15 13
4 1 3 5 8 9 8 4 1 7 2 7 11 14 14 11 11 12 12 13 14 14 14 15 16 16 17 17 16 14 16 16 17 16 17 17 18 18 19 19 19 18 18 17 16 15 15 16 14
1 2 1 2 5 7 10 4 7 5 3 8 11 13 12 11 11 12 12 12 13 14 14 15 15 16 16 16 16 16 16 16 16 15 17 17 18 19 19 19 19 19 18 17 16 15 16 16 15
2 1 3 5 4 6 8 2 9 4 4 8 11 12 10 10 11 12 12 13 13 14 14 15 15 16 16 16 16 16 16 16 16 16 17 18 18 18 18 18 19 18 18 18 16 16 15 15 15
Wind_Direction
324 320 277 241 143 91 78 57 68 69 64 59 62 68 67 49 27 48 354 349 350 2 9 11 8 0 353 348 345 340 337 335 336 336 334 329 326 323 318 315 314 316 313 301 290 282 273 264 254
322 298 246 264 108 95 77 59 57 46 29 81 64 60 61 51 27 17 350 342 355 10 16 16 15 13 7 358 350 342 336 330 326 324 320 316 313 310 309 308 309 311 315 308 291 280 274 266 257
286 286 37 72 73 73 69 35 37 69 47 44 69 51 47 23 12 359 345 344 5 20 23 21 22 23 22 17 9 359 350 339 330 322 316 309 303 300 300 300 301 304 307 305 292 276 267 261 250
264 150 77 85 77 56 42 24 19 80 49 28 73 67 71 29 4 351 351 4 19 27 27 27 26 27 27 25 23 20 13 3 353 342 331 320 308 301 298 297 295 294 297 298 294 281 268 258 247
292 85 92 88 83 72 50 34 45 49 53 30 66 82 69 26 12 7 11 18 25 28 27 28 28 27 27 26 25 24 21 18 14 7 356 342 325 313 304 298 297 292 289 291 291 285 273 261 247
82 89 96 89 91 82 60 31 40 48 51 33 55 85 64 20 14 16 20 25 29 29 27 26 26 25 26 26 24 23 21 19 17 14 7 358 347 332 319 308 304 301 293 290 288 285 276 264 251
81 77 90 100 94 69 45 47 34 44 44 32 12 75 62 20 15 20 26 29 31 29 27 24 21 19 19 22 21 20 20 18 16 14 9 2 357 352 342 330 319 310 300 294 289 283 277 266 255
45 101 99 88 87 75 59 63 49 41 48 38 35 58 37 15 19 25 32 33 31 27 24 20 18 15 12 12 16 14 16 14 12 12 9 3 358 357 352 350 344 331 314 298 290 283 276 266 256
31 88 81 66 93 95 90 92 74 66 71 66 61 62 50 31 30 32 33 30 26 24 20 17 14 11 7 5 5 6 9 10 7 8 5 2 358 358 350 353 348 344 334 314 294 284 279 271 246
47 77 58 43 88 103 83 83 98 77 63 62 60 57 49 41 36 35 31 25 20 17 14 13 12 8 4 1 359 360 2 2 4 3 1 357 354 352 350 343 348 343 339 325 304 288 273 257 247
56 70 88 77 93 102 93 76 68 96 59 52 54 51 43 40 37 34 30 24 18 13 12 9 9 6 3 358 355 354 353 355 357 360 359 354 352 348 350 344 345 342 340 338 327 307 282 267 259
81 53 88 94 91 94 95 91 74 69 80 73 64 55 47 41 37 30 24 18 13 11 10 6 5 5 2 358 353 351 351 350 351 353 355 354 350 348 346 340 339 337 338 334 328 318 304 286 268
89 84 81 90 89 89 91 90 89 84 85 80 70 59 50 43 36 31 22 18 13 9 6 3 1 2 358 355 351 351 349 348 344 347 350 352 347 344 342 335 335 333 333 330 326 318 313 300 286
110 112 106 101 97 89 91 89 85 88 90 80 66 56 48 41 32 25 19 14 10 6 2 360 358 359 356 354 351 347 345 344 342 343 345 347 345 341 336 331 330 329 331 327 319 315 310 299 289
122 116 113 120 119 128 99 77 84 100 92 75 62 55 47 39 32 26 18 11 7 3 360 359 355 355 354 352 349 345 343 341 339 340 340 346 344 339 334 328 325 329 327 322 318 315 310 304 296
150 146 120 106 121 153 146 106 105 101 88 72 57 48 43 38 31 26 19 11 6 2 359 357 355 352 352 350 345 343 341 340 338 338 338 346 342 341 333 327 324 328 323 318 317 314 313 307 297
191 168 130 117 53 121 127 131 130 115 90 72 55 42 34 29 24 21 16 10 5 2 358 356 356 353 351 347 342 340 339 338 337 338 342 343 340 341 334 325 326 328 323 318 317 317 313 305 298
160 154 129 108 65 97 122 133 137 120 87 70 51 37 28 23 18 14 10 8 4 0 357 356 354 353 350 347 341 339 339 337 337 339 341 338 337 337 332 326 328 328 322 322 320 315 309 301 294
97 128 115 93 103 109 134 143 147 141 95 60 40 27 19 15 12 11 8 6 1 358 356 355 353 351 351 348 343 340 338 336 335 337 335 335 334 334 331 328 327 326 322 320 316 316 311 306 303
129 130 121 115 117 131 152 160 161 156 90 47 26 17 10 2 3 4 2 1 358 355 354 352 351 348 349 347 338 335 330 330 333 333 331 333 333 332 331 331 328 324 320 316 317 317 310 305 301
125 250 177 161 135 151 169 195 197 179 153 66 30 16 10 3 356 357 357 357 356 356 354 350 348 345 347 344 339 336 334 333 337 336 332 332 330 329 328 329 328 322 318 312 311 309 303 303 302
159 44 193 170 182 186 210 259 180 188 189 47 21 15 7 1 355 354 355 355 354 353 351 348 346 344 346 344 343 342 340 339 336 333 327 327 327 326 326 326 326 321 316 309 305 302 297 293 289
6 16 202 197 220 220 207 261 151 175 213 315 9 6 2 358 354 353 355 352 350 350 350 347 344 345 346 345 344 341 339 336 332 332 329 330 327 325 325 326 324 320 314 309 304 300 292 282 278
299 155 135 176 217 251 198 233 190 170 194 3 1 358 356 356 352 349 350 350 349 350 350 347 345 345 346 345 344 342 339 337 334 336 333 332 327 325 327 326 323 319 314 311 307 301 294 284 273
332 282 270 247 233 262 114 240 356 122 100 19 351 348 350 351 348 346 348 350 349 349 349 346 345 345 346 345 344 340 339 336 334 335 331 330 327 327 326 325 321 319 315 312 309 305 297 290 279
9 343 349 316 311 321 199 260 102 140 104 4 346 345 346 349 349 348 349 348 348 347 346 345 344 343 345 344 342 339 339 335 331 331 328 327 325 324 323 323 320 318 317 316 314 311 308 298 289
331 28 353 286 281 274 250 158 148 176 226 346 348 349 352 351 348 346 347 349 348 346 346 344 342 342 343 342 341 339 338 335 332 329 327 326 325 323 324 323 321 319 319 319 318 314 316 313 302
22 74 248 289 312 303 296 263 184 168 307 346 349 351 351 350 348 347 348 349 348 345 343 343 343 341 340 341 340 336 336 335 332 328 328 328 326 325 324 324 323 321 321 321 319 318 320 322 315
177 162 221 260 285 295 305 359 95 117 26 350 349 352 351 349 348 348 349 348 346 345 344 343 343 341 341 341 339 337 337 335 333 332 330 329 327 327 326 325 324 323 323 324 319 319 324 326 322
282 266 244 287 282 256 285 348 122 96 14 353 350 355 352 350 348 347 347 345 345 344 343 342 341 341 340 339 337 336 336 337 336 335 333 331 329 328 327 326 325 325 326 326 320 320 327 331 329